DW7214 Weather Reports


time (UTC)temp
C
wind
direction
speed
KPH
gust
KPH
rain 1hr
cm
rain 24hr
cm
rain mn
cm
humidity
%
barometer
mb
20260506061518 12 115 1.6 6.4 0.00 0.00 0.00 84 1017.8
20260506044530 15 46 1.6 3.2 0.00 0.00 0.00 80 1017.4
20260506043023 15 246 0.0 3.2 0.00 0.00 0.00 83 1017.2
20260506041512 15 242 0.0 3.2 0.00 0.00 0.00 83 1017.1
20260506040042 15 241 0.0 3.2 0.00 0.00 0.00 83 1016.7
20260506034523 15 229 1.6 3.2 0.00 0.00 0.00 82 1016.5
20260506033022 16 208 0.0 3.2 0.00 0.00 0.00 80 1016.4
20260506031540 16 154 0.0 3.2 0.00 0.00 0.00 77 1016.3
20260506030012 17 119 0.0 3.2 0.00 0.00 0.00 74 1016.2
20260506024520 18 119 0.0 3.2 0.00 0.00 0.00 73 1016.0
20260506023021 18 56 0.0 3.2 0.00 0.00 0.00 70 1015.8
20260506021524 18 74 0.0 6.4 0.00 0.00 0.00 69 1015.8
20260506020010 18 50 0.0 4.8 0.00 0.00 0.00 69 1016.0
20260506014515 18 268 0.0 3.2 0.00 0.00 0.00 69 1015.8
20260506013021 18 340 1.6 6.4 0.00 0.00 0.00 68 1016.0
20260506011523 18 302 3.2 6.4 0.00 0.00 0.00 68 1016.0
20260506010012 18 295 1.6 6.4 0.00 0.00 0.00 69 1016.0
20260506004511 18 303 1.6 6.4 0.00 0.00 0.00 68 1016.1
20260506003008 18 337 4.8 9.7 0.00 0.00 0.00 67 1016.0
20260506001504 18 303 4.8 9.7 0.00 0.00 0.00 68 1016.1
20260506000004 18 311 3.2 11.3 0.00 0.00 0.00 69 1016.2
20260505234506 18 17 8.0 16.1 0.00 0.00 0.00 69 1016.3
20260505233004 18 351 4.8 11.3 0.00 0.00 0.00 70 1016.5
20260505231504 18 360 1.6 6.4 0.00 0.00 0.00 69 1016.5
20260505230006 18 36 1.6 11.3 0.00 0.00 0.00 67 1016.5
20260505224506 18 240 1.6 9.7 0.00 0.00 0.00 68 1016.7
20260505223005 18 327 3.2 8.0 0.00 0.00 0.00 67 1016.7
20260505221509 18 314 3.2 6.4 0.00 0.00 0.00 68 1016.8
20260505220007 18 352 1.6 6.4 0.00 0.00 0.00 67 1017.0
20260505214506 17 49 1.6 6.4 0.00 0.00 0.00 70 1017.1
20260505213008 17 57 1.6 6.4 0.00 0.00 0.00 69 1017.2
20260505211508 17 351 1.6 6.4 0.00 0.00 0.00 71 1017.3
20260505210007 17 65 1.6 4.8 0.00 0.00 0.00 69 1017.3
20260505204509 17 298 3.2 6.4 0.00 0.00 0.00 69 1017.4
20260505203008 16 49 1.6 6.4 0.00 0.00 0.00 70 1017.5
20260505201507 16 184 1.6 3.2 0.00 0.00 0.00 70 1017.6
20260505200015 16 329 1.6 3.2 0.00 0.00 0.00 71 1017.6
20260505194510 15 207 1.6 4.8 0.00 0.00 0.00 75 1017.7
20260505193010 15 63 1.6 4.8 0.00 0.00 0.00 74 1017.8
20260505191511 15 5 1.6 4.8 0.00 0.00 0.00 75 1017.8
20260505190012 14 234 1.6 4.8 0.00 0.00 0.00 76 1017.8
20260505184510 14 5 3.2 6.4 0.00 0.00 0.00 77 1017.7
20260505183019 14 287 1.6 6.4 0.00 0.00 0.00 77 1017.5
20260505181514 14 242 1.6 6.4 0.00 0.00 0.00 76 1017.5
20260505180012 14 344 1.6 4.8 0.00 0.00 0.00 76 1017.4
20260505174512 14 234 1.6 3.2 0.00 0.00 0.00 78 1017.4
20260505173014 13 340 0.0 3.2 0.00 0.00 0.00 78 1017.4
20260505171518 13 205 1.6 6.4 0.00 0.00 0.00 78 1017.3
20260505170017 13 232 0.0 3.2 0.00 0.00 0.00 79 1017.3
20260505164513 13 235 1.6 4.8 0.00 0.00 0.00 80 1017.1
20260505163014 13 221 3.2 4.8 0.00 0.00 0.00 79 1017.0
20260505161516 12 217 0.0 3.2 0.00 0.00 0.00 87 1017.1
20260505153006 11 117 1.6 3.2 0.00 0.00 0.00 89 1017.0
20260505151509 11 131 0.0 1.6 0.00 0.00 0.00 91 1017.0
20260505124516 9 237 0.0 3.2 0.00 0.00 0.00 94 1016.0
20260505123021 9 237 0.0 3.2 0.00 0.00 0.00 94 1015.9
20260505121522 9 237 0.0 3.2 0.00 0.00 0.00 94 1016.1
20260505120007 8 242 0.0 4.8 0.00 0.00 0.00 94 1016.0
20260505114514 8 225 0.0 3.2 0.00 0.00 0.00 95 1016.0
20260505113015 8 248 0.0 3.2 0.00 0.00 0.00 95 1016.0
20260505111532 7 244 0.0 3.2 0.00 0.00 0.00 95 1016.0
20260505101521 7 269 0.0 3.2 0.00 0.00 0.00 93 1015.3
20260505100028 7 269 0.0 0.0 0.00 0.00 0.00 92 1015.3
20260505094522 7 269 0.0 0.0 0.00 0.00 0.00 92 1015.3
20260505093012 8 269 0.0 3.2 0.00 0.00 0.00 92 1015.2
20260505091518 8 269 0.0 3.2 0.00 0.00 0.00 91 1015.2
20260505090024 8 269 0.0 3.2 0.00 0.00 0.00 92 1015.0
20260505084526 8 269 0.0 0.0 0.00 0.00 0.00 91 1015.0
20260505083024 8 269 0.0 3.2 0.00 0.00 0.00 91 1014.8
20260505081514 9 269 0.0 3.2 0.00 0.00 0.00 91 1014.6
20260505080020 9 173 0.0 3.2 0.00 0.00 0.00 90 1014.5
20260505074523 10 173 0.0 3.2 0.00 0.00 0.00 90 1014.3
20260505073041 10 156 0.0 3.2 0.00 0.00 0.00 89 1014.3
20260505071543 10 199 0.0 3.2 0.00 0.00 0.00 89 1014.1